Regional Weather Roundup
Issued by NWS Newport/Morehead, NC

Current Version | Previous Version | Graphics & Text | Print | Product List | Glossary Off
Versions: 1 2 3 4 5 6 7 8 9 10 11 12 13 14 15 16 17 18 19 20 21 22 23 24 25 26 27 28 29 30 31 32 33 34 35 36 37 38 39 40 41 42 43 44 45 46 47 48 49 50

000
ASUS42 KMHX 050724
RWRMHX
WEATHER ROUNDUP FOR EASTERN NORTH CAROLINA
NATIONAL WEATHER SERVICE NEWPORT/MOREHEAD CITY NC
200 AM EST MON DEC 05 2016

NOTE: "FAIR" INDICATES FEW OR NO CLOUDS BELOW 12,000 FEET
WITH NO SIGNIFICANT WEATHER AND/OR OBSTRUCTIONS TO VISIBILITY

NCZ015>017-031-032-045>047-102-103-050800-
NORTH COAST

CITY           SKY/WX    TMP DP  RH WIND       PRES   REMARKS
EDENTON        LGT RAIN  49  46  92 CALM      30.05S
ELIZABETH CITY LGT RAIN  46  44  93 E6        30.05F
KITTY HAWK     RAIN      49  49 100 E7        30.02F
MANTEO         DRIZZLE   49  48  97 SE9       30.03F

$$

NCZ045>047-081-094-103-104-050800-
CENTRAL COAST

CITY           SKY/WX    TMP DP  RH WIND       PRES   REMARKS
FRISCO         LGT RAIN  61  57  87 S16       30.02F FOG

$$

NCZ095-097-098-100-101-050800-
SOUTHERN COAST

CITY           SKY/WX    TMP DP  RH WIND       PRES   REMARKS
BEAUFORT       RAIN      63  62  97 S12       30.00F FOG
CEDAR ISLAND   NOT AVBL
JACKSONVILLE   RAIN      49  49 100 CALM      30.00F FOG
PINEY ISLAND   RAIN     N/A N/A N/A N3        30.00F
WILMINGTON     RAIN      53  53 100 NE6       29.98F FOG


$$

NCZ011>013-027>030-043-044-078>080-089-090>093-098-050800-
COASTAL PLAIN

CITY           SKY/WX    TMP DP  RH WIND       PRES   REMARKS
AHOSKIE        HVY RAIN  42  42  98 E3        30.04F
CLINTON        DRIZZLE   46  46 100 CALM      29.99F
ELIZABETHTOWN  LGT RAIN  47  47 100 CALM      29.98F
GOLDSBORO      LGT RAIN  46  46 100 E5        29.98F
GREENVILLE     LGT RAIN  45  45 100 E3        30.03F
HAVELOCK       HVY RAIN  53  51  93 NE6       30.01F FOG
KENANSVILLE    LGT RAIN  46  46 100 CALM      29.99F FOG
KINSTON        RAIN      47  46  98 E3        30.01F
NEW BERN       RAIN      49  47  93 NE6       30.01F FOG
RICHLANDS      LGT RAIN  47  47 100 CALM      30.00F
ROCKY MOUNT    LGT RAIN  44  44 100 NE5       30.01F FOG
WASHINGTON     LGT RAIN  45  44  97 NE6       30.02F
WHITEVILLE     RAIN      49  48  97 CALM      29.97F

$$

AMZ130-135-150-152-154-156-158-170-250-252-270-ANZ085-086-088-633-658-670-050800-
MARINE OBSERVATIONS

STATION/POSITION TIME  TEMP    WIND        PRES    WAVE   SWELL
                       AIR SEA DIR/SP/G            HT/PER HT/PER
                 (UTC) (F)     (DEG/KT/KT) (MB)    (FT/S) (FT/S)
CHESAPEAKE LIGHT NOT AVBL
64 E VA BEACH    0650   51 60  140/  8/ 10 1018.1    3/ 9   2/ 9
DUCK             0700   49 54  100/ 15/ 18 1016.4
2 E DUCK         NOT AVBL
OREGON INLET     0700   51 53   70/  9/ 13 1016.9
13E OREGON INLT  NOT AVBL
HATTERAS CG      0700   62 57  150/ 12/ 16 1015.9
DIAMOND BUOY     0650   65 74  150/ 17/ 23 1016.7    4/ 8   3/ 8
CAPE LOOKOUT     0700   62     190/ 12/ 14 1015.5
BEAUFORT LAB     0700   61 55  200/ 10/ 13 1014.5
30 SE NEW RVR IN 0708   65 74  210/ 21/ 27 1015.4
30 SE NEW RVR IN NOT AVBL
27 SE WRIGHTSVLE 0708   70 68  200/ 21/ 29 1014.5
5 SE WRIGHTSVLE  0708   60 63  210/  8/ 12 1014.6
225 S CAPE HAT   0650   68 73  170/ 14/ 17 1019.4    4/ 9   3/ 9
41 SE CHARLESTON 0650   75 74  190/ 23/ 29 1014.2    7/ 6

$$



USA.gov is the U.S. government's official web portal to all federal, state and local government web resources and services.